Location: Claremont
(33.9858°S, 18.4575°E)
Time: 04:40:16
(UTC+00:00)

ARGOS - Pass Details

Date: 03 March 2021
Orbit: 819 x 835 km, 98.4° (Epoch: 10 April)

Event Time Altitude Azimuth Distance (km) Brightness Sun altitude
Rises 19:06:51 0° 175° (S) 3,390 6.6 -22.1°
Reaches altitude 10° 19:09:18 10° 181° (S) 2,453 5.9 -22.5°
Maximum altitude 19:14:28 46° 252° (WSW) 1,108 4.2 -23.5°
Drops below altitude 10° 19:19:36 10° 324° (NW) 2,434 5.7 -24.4°
Sets 19:22:01 0° 330° (NNW) 3,362 6.4 -24.9°
